This demonstration page uses our WeatherBlox Daily Observations layout. Learn more.

Left ArrowRight Arrow

39.12711, -84.51439

Hourly Observations for September 23, 2018

Temp ( °F °C ) Dew Point ( °F °C ) Humidity (%) Winds ( mph kmh ) Pressure ( in mb ) Visibility ( mi km ) Precip ( " mm )
12:53 am 00:53 Cloudy 59 15 59 15 100 100 NE 5 7 30.16 1022 10 16 0.00 0.00
1:53 am 01:53 Partly Cloudy 58 14.4 57 13.9 97 97 NE 5 7 30.15 1021 10 16 0.00 0.00
2:53 am 02:53 Clear 58 14.4 57 13.9 97 97 NE 3 6 30.14 1021 10 16 0.00 0.00
3:53 am 03:53 Mostly Cloudy 58 14.4 57 13.9 97 97 Calm 30.14 1021 10 16 0.00 0.00
4:53 am 04:53 Cloudy 58 14.4 57 13.9 97 97 NE 5 7 30.12 1020 10 16 0.00 0.00
5:53 am 05:53 Cloudy 58 14.4 57 13.9 97 97 NNE 6 9 30.11 1020 10 16 0.00 0.00
6:53 am 06:53 Cloudy 59 15 57 13.9 93 93 NNE 5 7 30.11 1020 10 16 0.00 0.00
7:53 am 07:53 Cloudy 59 15 57 13.9 93 93 NE 5 7 30.12 1020 10 16 0.00 0.00
8:53 am 08:53 Cloudy 59 15 58 14.4 96 96 NNE 5 7 30.13 1020 10 16 0.00 0.00
9:04 am 09:04 Cloudy 59 15 57 13.9 93 93 NNE 5 7 30.15 1021 10 16 0.00 0.00
9:53 am 09:53 Cloudy 60 15.6 58 14.4 93 93 ENE 6 9 30.14 1021 7 11 0.00 0.00
10:53 am 10:53 Cloudy with Light Rain 60 15.6 58 14.4 93 93 ENE 7 11 30.15 1021 6 10 0.00 0.03
11:53 am 11:53 Cloudy with Light Rain 61 16.1 58 14.4 90 90 NE 7 11 30.16 1022 8 13 0.00 0.03
12:25 pm 12:25 Cloudy with Light Rain 62 16.7 60 15.6 93 93 NE 5 7 30.12 1020 6 10 0.00 0.03
12:53 pm 12:53 Cloudy with Light Rain 64 17.8 60 15.6 87 87 NE 7 11 30.14 1021 6 10 0.00 0.03
1:53 pm 13:53 Cloudy 66 18.9 60 15.6 81 81 ENE 7 11 30.13 1020 10 16 0.00 0.03
2:53 pm 14:53 Mostly Cloudy 69 20.6 61 16.1 76 76 NE 10 17 30.10 1019 10 16 0.00 0.00
3:53 pm 15:53 Cloudy 71 21.7 60 15.6 68 68 NE 10 17 30.09 1019 10 16 0.00 0.00
4:53 pm 16:53 Cloudy 71 21.7 60 15.6 68 68 NE 7 11 30.09 1019 10 16 0.00 0.00
5:53 pm 17:53 Cloudy 70 21.1 60 15.6 71 71 ENE 6 9 30.09 1019 10 16 0.00 0.00
6:53 pm 18:53 Cloudy 69 20.6 59 15 70 70 ENE 7 11 30.09 1019 10 16 0.00 0.00
7:53 pm 19:53 Cloudy 67 19.4 59 15 76 76 ENE 6 9 30.09 1019 10 16 0.00 0.00
8:53 pm 20:53 Mostly Clear 65 18.3 58 14.4 78 78 Calm 30.11 1020 10 16 0.00 0.00
9:53 pm 21:53 Partly Cloudy 62 16.7 60 15.6 93 93 Calm 30.12 1020 10 16 0.00 0.00
10:14 pm 22:14 Cloudy 62 16.7 61 16.1 96 96 Calm 30.09 1019 10 16 0.00 0.00
10:53 pm 22:53 Mostly Cloudy 62 16.7 61 16.1 96 96 Calm 30.12 1020 10 16 0.00 0.00
11:50 pm 23:50 Cloudy 63 17 59 15 88 88 N 5 7 30.09 1019 10 16 0.00 0.00
11:53 pm 23:53 Cloudy 63 17.2 59 15 87 87 NNE 5 7 30.13 1020 10 16 0.00 0.00

Powered by AerisWeather